When you browse on this site, cookies collect data to enhance your experience and personalize the content and advertising you see.
Visit our Privacy Policy to learn more. By continuing to use the site, you agree to this use of cookies and data.
  • In Austria
  • List of Countries
  • For 7 days
  • Water Temperature
  • Satellite Maps
  • Weather Map
  • News
  • Weather Widgets
  • user-avatar
    Login

    Hourly Weather Elbasan

    Today, 16 February, Saturday

    Time Temperature Precipitation Wind Pressure Humidity
    00:00 +2°C° 0 mm 2 mps 743 mmHg 68%
    01:00 +2°C° 0 mm 2 mps 743 mmHg 69%
    02:00 +2°C° 0 mm 2 mps 743 mmHg 68%
    03:00 +2°C° 0 mm 2 mps 743 mmHg 67%
    04:00 +1°C° 0 mm 3 mps 743 mmHg 67%
    05:00 +1°C° 0 mm 3 mps 743 mmHg 66%
    06:00 +1°C° 0 mm 3 mps 743 mmHg 66%
    07:00 +1°C° 0 mm 3 mps 743 mmHg 66%
    08:00 +3°C° 0 mm 3 mps 743 mmHg 59%
    09:00 +5°C° 0 mm 3 mps 743 mmHg 52%
    10:00 +8°C° 0 mm 3 mps 744 mmHg 45%
    11:00 +9°C° 0 mm 3 mps 744 mmHg 42%
    12:00 +10°C° 0 mm 3 mps 743 mmHg 40%
    13:00 +12°C° 0 mm 2 mps 743 mmHg 38%
    14:00 +12°C° 0 mm 2 mps 743 mmHg 40%
    15:00 +12°C° 0 mm 2 mps 743 mmHg 42%
    16:00 +12°C° 0 mm 1 mps 743 mmHg 45%
    17:00 +10°C° 0 mm 1 mps 743 mmHg 49%
    18:00 +8°C° 0 mm 2 mps 743 mmHg 53%
    19:00 +6°C° 0 mm 2 mps 743 mmHg 57%
    20:00 +6°C° 0 mm 2 mps 743 mmHg 58%
    21:00 +5°C° 0 mm 2 mps 743 mmHg 59%
    22:00 +5°C° 0 mm 2 mps 744 mmHg 60%
    23:00 +5°C° 0 mm 2 mps 744 mmHg 60%

    Tomorrow, 17 February, Sunday

    Time Temperature Precipitation Wind Pressure Humidity
    00:00 +4°C° 0 mm 2 mps 744 mmHg 60%
    01:00 +4°C° 0 mm 2 mps 744 mmHg 60%
    02:00 +4°C° 0 mm 2 mps 743 mmHg 59%
    03:00 +4°C° 0 mm 2 mps 743 mmHg 57%
    04:00 +4°C° 0 mm 2 mps 743 mmHg 56%
    05:00 +4°C° 0 mm 2 mps 743 mmHg 55%
    06:00 +4°C° 0 mm 2 mps 743 mmHg 53%
    07:00 +4°C° 0 mm 2 mps 743 mmHg 52%
    08:00 +7°C° 0 mm 1 mps 743 mmHg 46%
    09:00 +10°C° 0 mm 1 mps 743 mmHg 40%
    10:00 +12°C° 0 mm 1 mps 743 mmHg 34%
    11:00 +13°C° 0 mm 1 mps 743 mmHg 33%
    12:00 +14°C° 0 mm 1 mps 743 mmHg 32%
    13:00 +15°C° 0 mm 1 mps 742 mmHg 32%
    14:00 +14°C° 0 mm 1 mps 742 mmHg 36%
    15:00 +14°C° 0 mm 1 mps 742 mmHg 41%
    16:00 +13°C° 0 mm 1 mps 742 mmHg 46%
    17:00 +11°C° 0 mm 1 mps 742 mmHg 52%
    18:00 +10°C° 0 mm 1 mps 742 mmHg 58%
    19:00 +7°C° 0 mm 0 mps 742 mmHg 64%
    20:00 +7°C° 0 mm 0 mps 742 mmHg 63%
    21:00 +8°C° 0 mm 1 mps 742 mmHg 63%
    22:00 +8°C° 0 mm 1 mps 742 mmHg 62%
    23:00 +7°C° 0 mm 1 mps 742 mmHg 62%

    Day after tomorrow, 18 February, Monday

    Time Temperature Precipitation Wind Pressure Humidity
    00:00 +7°C° 0 mm 1 mps 742 mmHg 61%
    01:00 +7°C° 0 mm 1 mps 742 mmHg 60%
    02:00 +7°C° 0 mm 1 mps 741 mmHg 60%
    03:00 +7°C° 0 mm 1 mps 741 mmHg 59%
    04:00 +7°C° 0 mm 1 mps 741 mmHg 58%
    05:00 +7°C° 0 mm 1 mps 741 mmHg 58%
    06:00 +7°C° 0 mm 1 mps 741 mmHg 57%
    07:00 +7°C° 0 mm 1 mps 741 mmHg 57%
    08:00 +9°C° 0 mm 1 mps 741 mmHg 52%
    09:00 +10°C° 0 mm 0 mps 741 mmHg 47%
    10:00 +12°C° 0 mm 0 mps 741 mmHg 42%
    11:00 +14°C° 0 mm 1 mps 741 mmHg 42%
    12:00 +14°C° 0 mm 1 mps 741 mmHg 42%
    13:00 +15°C° 0 mm 2 mps 740 mmHg 42%
    14:00 +15°C° 0 mm 2 mps 740 mmHg 45%
    15:00 +14°C° 0 mm 2 mps 740 mmHg 49%
    16:00 +14°C° 0 mm 2 mps 740 mmHg 53%
    17:00 +12°C° 0 mm 1 mps 740 mmHg 60%
    18:00 +11°C° 0 mm 1 mps 740 mmHg 67%
    19:00 +8°C° 0 mm 0 mps 740 mmHg 74%
    20:00 +8°C° 0 mm 0 mps 740 mmHg 74%
    21:00 +7°C° 0 mm 0 mps 740 mmHg 74%
    22:00 +7°C° 0 mm 0 mps 741 mmHg 74%
    23:00 +7°C° 0 mm 0 mps 741 mmHg 74%

    19 February, Tuesday

    Time Temperature Precipitation Wind Pressure Humidity
    00:00 +8°C° 0 mm 1 mps 741 mmHg 74%
    01:00 +7°C° 0 mm 1 mps 741 mmHg 74%
    02:00 +7°C° 0 mm 1 mps 740 mmHg 74%
    03:00 +7°C° 0 mm 1 mps 740 mmHg 74%
    04:00 +7°C° 0 mm 1 mps 740 mmHg 73%
    05:00 +7°C° 0 mm 1 mps 740 mmHg 73%
    06:00 +7°C° 0 mm 1 mps 740 mmHg 72%
    07:00 +7°C° 0 mm 1 mps 741 mmHg 71%
    08:00 +9°C° 0 mm 1 mps 741 mmHg 64%
    09:00 +11°C° 0 mm 1 mps 741 mmHg 56%
    10:00 +13°C° 0 mm 1 mps 741 mmHg 48%
    11:00 +13°C° 0 mm 1 mps 741 mmHg 45%
    12:00 +14°C° 0 mm 2 mps 741 mmHg 43%
    13:00 +15°C° 0 mm 2 mps 740 mmHg 41%
    14:00 +14°C° 0 mm 2 mps 740 mmHg 45%
    15:00 +14°C° 0 mm 2 mps 740 mmHg 48%
    16:00 +13°C° 0 mm 2 mps 740 mmHg 52%
    17:00 +12°C° 0 mm 1 mps 740 mmHg 61%
    18:00 +10°C° 0 mm 1 mps 740 mmHg 70%
    19:00 +8°C° 0 mm 0 mps 740 mmHg 78%
    20:00 +7°C° 0 mm 0 mps 741 mmHg 79%
    21:00 +7°C° 0 mm 0 mps 741 mmHg 80%
    22:00 +7°C° 0 mm 0 mps 741 mmHg 80%
    23:00 +7°C° 0 mm 0 mps 741 mmHg 80%

    20 February, Wednesday

    Time Temperature Precipitation Wind Pressure Humidity
    00:00 +6°C° 0 mm 0 mps 741 mmHg 80%
    01:00 +6°C° 0 mm 0 mps 741 mmHg 80%
    02:00 +6°C° 0 mm 0 mps 741 mmHg 79%
    03:00 +7°C° 0 mm 1 mps 740 mmHg 77%
    04:00 +6°C° 0 mm 1 mps 740 mmHg 76%
    05:00 +6°C° 0 mm 1 mps 740 mmHg 74%
    06:00 +6°C° 0 mm 1 mps 741 mmHg 72%
    07:00 +6°C° 0 mm 1 mps 741 mmHg 70%
    08:00 +8°C° 0 mm 1 mps 741 mmHg 63%
    09:00 +10°C° 0 mm 1 mps 741 mmHg 57%
    10:00 +12°C° 0 mm 1 mps 741 mmHg 51%
    11:00 +13°C° 0 mm 1 mps 741 mmHg 50%
    12:00 +14°C° 0 mm 2 mps 741 mmHg 49%
    13:00 +14°C° 0 mm 2 mps 741 mmHg 48%
    14:00 +14°C° 0 mm 2 mps 741 mmHg 51%
    15:00 +14°C° 0 mm 2 mps 740 mmHg 54%
    16:00 +13°C° 0 mm 2 mps 740 mmHg 58%
    17:00 +12°C° 0 mm 1 mps 740 mmHg 66%
    18:00 +10°C° 0 mm 1 mps 741 mmHg 74%
    19:00 +8°C° 0 mm 0 mps 741 mmHg 83%
    20:00 +7°C° 0 mm 0 mps 741 mmHg 83%
    21:00 +7°C° 0 mm 0 mps 741 mmHg 83%
    22:00 +7°C° 0 mm 0 mps 741 mmHg 84%
    23:00 +7°C° 0 mm 0 mps 741 mmHg 83%

    21 February, Thursday

    Time Temperature Precipitation Wind Pressure Humidity
    00:00 +6°C° 0 mm 0 mps 741 mmHg 82%
    01:00 +6°C° 0 mm 0 mps 741 mmHg 82%
    02:00 +6°C° 0 mm 0 mps 741 mmHg 81%
    03:00 +7°C° 0 mm 1 mps 741 mmHg 79%
    04:00 +6°C° 0 mm 1 mps 741 mmHg 78%
    05:00 +6°C° 0 mm 1 mps 741 mmHg 76%
    06:00 +6°C° 0 mm 1 mps 741 mmHg 73%
    07:00 +6°C° 0 mm 1 mps 741 mmHg 71%
    08:00 +9°C° 0 mm 1 mps 741 mmHg 63%
    09:00 +11°C° 0 mm 1 mps 741 mmHg 55%
    10:00 +12°C° 0 mm 0 mps 742 mmHg 46%
    11:00 +14°C° 0 mm 1 mps 741 mmHg 45%
    12:00 +14°C° 0 mm 1 mps 741 mmHg 44%
    13:00 +15°C° 0 mm 2 mps 741 mmHg 43%
    14:00 +15°C° 0 mm 2 mps 740 mmHg 48%
    15:00 +14°C° 0 mm 2 mps 740 mmHg 53%
    16:00 +14°C° 0 mm 2 mps 740 mmHg 58%
    17:00 +12°C° 0 mm 1 mps 740 mmHg 67%
    18:00 +11°C° 0 mm 1 mps 740 mmHg 76%
    19:00 +8°C° 0 mm 0 mps 740 mmHg 85%
    20:00 +8°C° 0 mm 0 mps 740 mmHg 85%
    21:00 +8°C° 0 mm 0 mps 741 mmHg 84%
    22:00 +7°C° 0 mm 0 mps 741 mmHg 84%
    23:00 +7°C° 0 mm 0 mps 741 mmHg 83%
    Show more